This demonstration page uses our WeatherBlox Daily Observations layout. Learn more.

Left ArrowRight Arrow

44.8408, -93.29828

Hourly Observations for July 11, 2016

Temp ( °F °C ) Dew Point ( °F °C ) Humidity (%) Winds ( mph kmh ) Pressure ( in mb ) Visibility ( mi km ) Precip ( " mm )
12:53 am 00:53 Cloudy 74 23.3 67 19.4 79 79 SSE 12 19 29.78 1009 10 16 0.00 0.00
1:53 am 01:53 Cloudy 74 23.3 67 19.4 79 79 S 9 15 29.78 1008 10 16 0.00 0.00
2:53 am 02:53 Mostly Cloudy 73 22.8 67 19.4 81 81 SSE 10 17 29.76 1008 10 16 0.00 0.00
3:53 am 03:53 Mostly Cloudy 72 22.2 67 19.4 84 84 SSE 13 20 29.73 1007 10 16 0.00 0.00
4:53 am 04:53 Mostly Cloudy 73 22.8 68 20 84 84 SSE 14 22 29.72 1007 10 16 0.00 0.00
5:00 am 05:00 Mostly Cloudy 72 22.2 68 20 87 87 SSE 15 24 29.71 1006 10 16 0.00 0.00
5:24 am 05:24 Mostly Cloudy 73 22.8 68 20 84 84 SSE 13 20 29.71 1006 10 16 0.00 0.00
5:53 am 05:53 Cloudy 72 22.2 68 20 87 87 SSE 8 13 29.73 1007 10 16 0.00 0.00
6:53 am 06:53 Cloudy 74 23.3 69 20.6 85 85 N 12 19 29.75 1008 10 16 0.00 0.00
7:08 am 07:08 Mostly Cloudy 74 23.3 69 20.6 85 85 NNE 12 19 29.74 1007 10 16 0.00 0.00
7:43 am 07:43 Cloudy 74 23.3 69 20.6 85 85 ENE 13 20 29.74 1007 10 16 0.00 0.00
7:53 am 07:53 Cloudy 74 23.3 69 20.6 85 85 ENE 12 19 29.76 1008 10 16 0.00 0.00
8:53 am 08:53 Cloudy 74 23.3 67 19.4 79 79 E 16 26 29.75 1008 10 16 0.00 0.00
9:08 am 09:08 Cloudy 73 23 66 19 78 78 E 14 22 29.74 1007 10 16 0.00 0.00
9:18 am 09:18 Cloudy 74 23.3 66 18.9 76 76 E 10 17 29.74 1007 10 16 0.00 0.00
9:53 am 09:53 Cloudy 74 23.3 66 18.9 76 76 E 12 19 29.73 1007 10 16 0.00 0.00
10:53 am 10:53 Cloudy 77 25 69 20.6 77 77 ESE 12 19 29.75 1007 10 16 0.00 0.00
11:40 am 11:40 Cloudy 79 26 72 22 79 79 ESE 14 22 29.71 1006 10 16 0.00 0.00
11:53 am 11:53 Cloudy 80 26.7 71 21.7 74 74 ESE 13 20 29.72 1006 10 16 0.00 0.00
12:53 pm 12:53 Cloudy 82 27.8 72 22.2 72 72 SE 12 19 29.69 1006 10 16 0.00 0.00
1:31 pm 13:31 Cloudy 86 30 73 22.8 65 65 SE 16 26 29.62 1003 10 16 0.00 0.00
1:53 pm 13:53 Cloudy 86 30 74 23.3 67 67 SSE 14 22 29.65 1004 10 16 0.00 0.00
2:53 pm 14:53 Mostly Cloudy 90 32.2 74 23.3 59 59 SSE 17 28 29.63 1003 10 16 0.00 0.00
3:53 pm 15:53 Mostly Cloudy 89 31.7 73 22.8 59 59 S 22 35 29.60 1002 10 16 0.00 0.00
4:53 pm 16:53 Mostly Cloudy 89 31.7 73 22.8 59 59 S 21 33 29.60 1002 10 16 0.00 0.00
5:53 pm 17:53 Mostly Cloudy 89 31.7 72 22.2 57 57 S 23 37 29.57 1001 10 16 0.00 0.00
6:53 pm 18:53 Mostly Cloudy 88 31.1 73 22.8 61 61 S 20 31 29.57 1001 10 16 0.00 0.00
7:53 pm 19:53 Mostly Cloudy 87 30.6 73 22.8 63 63 S 21 33 29.54 1001 10 16 0.00 0.00
8:53 pm 20:53 Mostly Cloudy 86 30 72 22.2 63 63 S 17 28 29.53 1000 10 16 0.00 0.00
9:53 pm 21:53 Mostly Cloudy 86 30 72 22.2 63 63 S 15 24 29.53 1000 10 16 0.00 0.00
10:53 pm 22:53 Cloudy 84 28.9 73 22.8 70 70 S 12 19 29.54 1000 10 16 0.00 0.03
11:53 pm 23:53 Cloudy with Light Rain 82 27.8 73 22.8 74 74 SW 10 17 29.52 1000 10 16 0.00 0.03

Powered by AerisWeather